Flag Weather past 2 weeks in Saarbrücken, Saarland, Germany

Now
45 °F

Clear.


Feels Like: 43 °F
Forecast: 36 / 42 °F
Wind: 3 mph from Northwest

Location: Saarbruecken / Ensheim

Current Time: Nov 24, 2014 at 6:28:02 AM

Latest Report: Nov 24, 2014 at 5:50 AM


Visibility: 10 mi

Pressure: 30.09 "Hg

Humidity: 93%

Dew point: 43 °F

Location of SaarbrückenLocation

Historic Weather in Saarbrücken — Graph

°F

Saarbrücken temperature yesterday

Maximum temperature yesterday: 52 °F (at 2:50 PM)
Minimum temperature yesterday: 39 °F (at 4:20 AM)
Average temperature yesterday: 43 °F

Past Weeks' High & Low Weather Summary

 TemperatureHumidityPressure
High55 °F (Nov 22, 1:20 PM)100% (Nov 9, 6:20 AM)30.27 "Hg (Nov 9, 6:20 AM)
Low37 °F (Nov 9, 5:50 AM)67% (Nov 9, 1:20 PM)29.53 "Hg (Nov 15, 3:20 AM)
Average45 °F92%29.87 "Hg
* Reported Nov 9 5:20 AM — Nov 24 5:20 AM, Saarbrücken, Weather by CustomWeather, © 2014

Note: Actual official high and low records may vary slightly from our data, if they occured in-between our weather recording intervals... More about our weather records

Advertising

Saarbrücken weather history for previous 24 hours

 ConditionsComfort  
Time TempWeatherWind HumidityBarometerVisibility
5:20 AM
Nov 24
45 °FClear.3 mph93%30.09 "Hg10 mi
4:50 AM45 °FClear.1 mph93%30.09 "Hg10 mi
4:20 AM45 °FClear.2 mph93%30.07 "Hg10 mi
3:50 AM45 °FClear.2 mph93%30.07 "Hg10 mi
3:20 AM45 °FClear.1 mph93%30.07 "Hg10 mi
2:50 AM45 °FClear.2 mph93%30.07 "Hg10 mi
2:20 AM46 °FClear.2 mph87%30.07 "Hg10 mi
1:50 AM46 °FClear.1 mph87%30.07 "Hg10 mi
1:20 AM46 °FClear.2 mph87%30.07 "Hg10 mi
12:50 AM46 °FClear.1 mph93%30.07 "Hg10 mi
12:20 AM45 °FPassing clouds.3 mph93%30.07 "HgN/A
11:50 PM
Nov 23
45 °FClear.6 mph93%30.07 "Hg10 mi
11:20 PM45 °FClear.3 mph93%30.07 "Hg10 mi
10:50 PM43 °FClear.3 mph93%30.07 "Hg10 mi
10:20 PM43 °FClear.3 mph93%30.07 "Hg10 mi
9:20 PM45 °FClear.6 mph93%30.07 "Hg10 mi
8:50 PM45 °FClear.7 mph93%30.07 "Hg10 mi
8:20 PM45 °FClear.7 mph93%30.07 "Hg10 mi
7:50 PM45 °FClear.7 mph93%30.07 "Hg10 mi
7:20 PM45 °FClear.8 mph93%30.07 "Hg10 mi
6:50 PM45 °FClear.9 mph93%30.07 "Hg10 mi
6:20 PM45 °FClear.8 mph93%30.07 "Hg10 mi
5:50 PM45 °FClear.8 mph93%30.07 "Hg10 mi
5:20 PM46 °FClear.7 mph87%30.07 "Hg10 mi
4:50 PM46 °FClear.9 mph87%30.07 "Hg10 mi
4:20 PM48 °FSunny.8 mph87%30.07 "Hg10 mi
3:50 PM50 °FSunny.7 mph88%30.07 "Hg10 mi
3:20 PM52 °FSunny.7 mph82%30.07 "Hg10 mi
2:50 PM52 °FPassing clouds.6 mph82%30.07 "HgN/A
2:20 PM50 °FPassing clouds.3 mph88%30.09 "HgN/A
1:50 PM48 °FPartly sunny.9 mph94%30.09 "HgN/A
1:20 PM46 °FPartly sunny.9 mph100%30.09 "Hg5 mi
12:50 PM45 °FPartly sunny.9 mph100%30.12 "Hg4 mi
12:20 PM45 °FPartly sunny.7 mph100%30.12 "Hg4 mi
11:50 AM43 °FFog.8 mph100%30.12 "Hg1 mi
11:20 AM43 °FFog.8 mph100%30.15 "Hg1 mi
10:50 AM43 °FFog.8 mph100%30.15 "Hg0 mi
10:20 AM41 °FFog.8 mph100%30.15 "Hg0 mi
9:50 AM41 °FFog.10 mph100%30.12 "Hg0 mi
9:20 AM41 °FFog.9 mph93%30.12 "Hg0 mi
8:50 AM39 °FFog.8 mph100%30.12 "Hg0 mi
8:20 AM39 °FFog.8 mph100%30.12 "Hg0 mi
7:50 AM39 °FFog.9 mph100%30.12 "Hg0 mi
7:20 AM39 °FFog.9 mph100%30.12 "Hg1 mi
6:50 AM39 °FFog.12 mph100%30.12 "Hg1 mi
6:20 AM39 °FFog.9 mph100%30.12 "Hg1 mi
Weather by CustomWeather, © 2014

See weather overviewHow to use our weather pages